owner,sensor,date,latitude,longitude,vertical_datum,wind_speed,wind_to_direction,wind_speed_of_gust,qcFlag 
TABS,ioos:station:wmo:42044:1,2011-12-01T00:00:00Z,26.1914,-97.0507,0.0,5.318646444,74.29097799,6.83,'11111222,11111222,11111222' 
TABS,ioos:station:wmo:42044:1,2011-12-01T00:30:00Z,26.1914,-97.0507,0.0,5.358525917,79.57042985,6.76,'11111222,11111222,11111222' 
TABS,ioos:station:wmo:42044:1,2011-12-01T01:00:00Z,26.1914,-97.0507,0.0,5.550225221,89.48341606,6.96,'11111222,11111222,11111222' 
TABS,ioos:station:wmo:42044:1,2011-12-01T01:30:00Z,26.1914,-97.0507,0.0,5.324518758,98.20659405,6.99,'11111222,11111222,11111222' 
TABS,ioos:station:wmo:42044:1,2011-12-01T02:00:00Z,26.1914,-97.0507,0.0,5.123055729,103.0872168,6.62,'11111222,11111222,11111222' 
TABS,ioos:station:wmo:42044:1,2011-12-01T02:30:00Z,26.1914,-97.0507,0.0,5.552963173,108.3700697,7.3,'11111222,11111222,11111222' 
TABS,ioos:station:wmo:42044:1,2011-12-01T03:00:00Z,26.1914,-97.0507,0.0,5.609857396,111.7638479,7.46,'11111222,11111222,11111222' 
TABS,ioos:station:wmo:42044:1,2011-12-01T03:30:00Z,26.1914,-97.0507,0.0,5.295025968,116.7105844,7.45,'11111222,11111222,11111222' 
TABS,ioos:station:wmo:42044:1,2011-12-01T04:00:00Z,26.1914,-97.0507,0.0,5.882941441,123.0691234,7.35,'11111222,11111222,11111222' 
TABS,ioos:station:wmo:42044:1,2011-12-01T04:30:00Z,26.1914,-97.0507,0.0,5.726185467,122.3027052,7.45,'11111222,11111222,11111222' 
TABS,ioos:station:wmo:42044:1,2011-12-01T05:00:00Z,26.1914,-97.0507,0.0,5.297735365,118.4036595,6.48,'11111222,11111222,11111222' 
TABS,ioos:station:wmo:42044:1,2011-12-01T05:30:00Z,26.1914,-97.0507,0.0,5.224270284,125.181038,6.75,'11111222,11111222,11111222' 
TABS,ioos:station:wmo:42044:1,2011-12-01T06:00:00Z,26.1914,-97.0507,0.0,5.203114452,123.8736574,6.93,'11111222,11111222,11111222' 
TABS,ioos:station:wmo:42044:1,2011-12-01T06:30:00Z,26.1914,-97.0507,0.0,5.710429056,126.1678691,7.81,'11111222,11111222,11111222' 
TABS,ioos:station:wmo:42044:1,2011-12-01T07:00:00Z,26.1914,-97.0507,0.0,6.003332408,124.9610844,7.49,'11111222,11111222,11111222' 
TABS,ioos:station:wmo:42044:1,2011-12-01T07:30:00Z,26.1914,-97.0507,0.0,7.447267955,171.7395638,8.95,'11111222,11111222,11111222' 
TABS,ioos:station:wmo:42044:1,2011-12-01T08:00:00Z,26.1914,-97.0507,0.0,6.98710956,173.343086,9.55,'11111222,11111222,11111222' 
TABS,ioos:station:wmo:42044:1,2011-12-01T08:30:00Z,26.1914,-97.0507,0.0,6.70380489,176.3225896,8.34,'11111222,11111222,11111222' 
TABS,ioos:station:wmo:42044:1,2011-12-01T09:00:00Z,26.1914,-97.0507,0.0,4.770262047,179.3996492,5.96,'11111222,11111222,11111222' 
TABS,ioos:station:wmo:42044:1,2011-12-01T09:30:00Z,26.1914,-97.0507,0.0,5.089174786,162.7402527,6.51,'11111222,11111222,11111222' 
TABS,ioos:station:wmo:42044:1,2011-12-01T10:00:00Z,26.1914,-97.0507,0.0,6.653435203,161.5108412,8.11,'11111222,11111222,11111222' 
TABS,ioos:station:wmo:42044:1,2011-12-01T10:30:00Z,26.1914,-97.0507,0.0,6.795770744,161.3786746,8.02,'11111222,11111222,11111222' 
TABS,ioos:station:wmo:42044:1,2011-12-01T11:00:00Z,26.1914,-97.0507,0.0,6.408572384,160.20811,8.46,'11111222,11111222,11111222' 
TABS,ioos:station:wmo:42044:1,2011-12-01T11:30:00Z,26.1914,-97.0507,0.0,6.556904758,158.2475313,8.03,'11111222,11111222,11111222' 
TABS,ioos:station:wmo:42044:1,2011-12-01T12:00:00Z,26.1914,-97.0507,0.0,6.951122212,155.7950717,8.59,'11111222,11111222,11111222' 
TABS,ioos:station:wmo:42044:1,2011-12-01T12:30:00Z,26.1914,-97.0507,0.0,6.133530794,151.8893247,7.36,'11111222,11111222,11111222' 
TABS,ioos:station:wmo:42044:1,2011-12-01T13:00:00Z,26.1914,-97.0507,0.0,6.132576946,154.6052105,7.61,'11111222,11111222,11111222' 
TABS,ioos:station:wmo:42044:1,2011-12-01T13:30:00Z,26.1914,-97.0507,0.0,6.92288957,153.5832718,8.43,'11111222,11111222,11111222' 
TABS,ioos:station:wmo:42044:1,2011-12-01T14:00:00Z,26.1914,-97.0507,0.0,6.59021244,150.7514525,8.26,'11111222,11111222,11111222' 
TABS,ioos:station:wmo:42044:1,2011-12-01T14:30:00Z,26.1914,-97.0507,0.0,6.507111494,153.0414431,8.02,'11111222,11111222,11111222' 
TABS,ioos:station:wmo:42044:1,2011-12-01T15:00:00Z,26.1914,-97.0507,0.0,6.445098913,152.5605467,8.65,'11111222,11111222,11111222' 
TABS,ioos:station:wmo:42044:1,2011-12-01T15:30:00Z,26.1914,-97.0507,0.0,6.595422655,151.5700793,8.22,'11111222,11111222,11111222' 
TABS,ioos:station:wmo:42044:1,2011-12-01T16:00:00Z,26.1914,-97.0507,0.0,6.833476421,153.2102397,8.62,'11111222,11111222,11111222' 
TABS,ioos:station:wmo:42044:1,2011-12-01T16:30:00Z,26.1914,-97.0507,0.0,6.633196816,152.4308153,8.17,'11111222,11111222,11111222' 
TABS,ioos:station:wmo:42044:1,2011-12-01T17:00:00Z,26.1914,-97.0507,0.0,6.137654275,152.015649,7.91,'11111222,11111222,11111222' 
TABS,ioos:station:wmo:42044:1,2011-12-01T17:30:00Z,26.1914,-97.0507,0.0,5.641214408,149.890062,7.05,'11111222,11111222,11111222' 
TABS,ioos:station:wmo:42044:1,2011-12-01T18:00:00Z,26.1914,-97.0507,0.0,5.760251731,153.8355727,7.54,'11111222,11111222,11111222' 
TABS,ioos:station:wmo:42044:1,2011-12-01T18:30:00Z,26.1914,-97.0507,0.0,6.272623056,150.6972587,7.76,'11111222,11111222,11111222' 
TABS,ioos:station:wmo:42044:1,2011-12-01T19:00:00Z,26.1914,-97.0507,0.0,6.072767079,149.0850682,7.57,'11111222,11111222,11111222' 
TABS,ioos:station:wmo:42044:1,2011-12-01T19:30:00Z,26.1914,-97.0507,0.0,6.851583759,151.3030567,8.44,'11111222,11111222,11111222' 
TABS,ioos:station:wmo:42044:1,2011-12-01T20:00:00Z,26.1914,-97.0507,0.0,6.894294743,147.7394343,8.78,'11111222,11111222,11111222' 
TABS,ioos:station:wmo:42044:1,2011-12-01T20:30:00Z,26.1914,-97.0507,0.0,6.709038679,149.1536952,8.57,'11111222,11111222,11111222' 
TABS,ioos:station:wmo:42044:1,2011-12-01T21:00:00Z,26.1914,-97.0507,0.0,6.606133514,149.1257718,8.53,'11111222,11111222,11111222' 
TABS,ioos:station:wmo:42044:1,2011-12-01T21:30:00Z,26.1914,-97.0507,0.0,6.346692052,147.2867575,8.33,'11111222,11111222,11111222' 
TABS,ioos:station:wmo:42044:1,2011-12-01T22:00:00Z,26.1914,-97.0507,0.0,6.572001217,143.1652716,8.03,'11111222,11111222,11111222' 
TABS,ioos:station:wmo:42044:1,2011-12-01T22:30:00Z,26.1914,-97.0507,0.0,6.628061557,141.1244874,8.15,'11111222,11111222,11111222' 
TABS,ioos:station:wmo:42044:1,2011-12-01T23:00:00Z,26.1914,-97.0507,0.0,6.554052182,144.5642397,8.12,'11111222,11111222,11111222' 
TABS,ioos:station:wmo:42044:1,2011-12-01T23:30:00Z,26.1914,-97.0507,0.0,6.359402488,141.2560688,7.72,'11111222,11111222,11111222' 
TABS,ioos:station:wmo:42044:1,2011-12-02T00:00:00Z,26.1914,-97.0507,0.0,6.598098211,143.4430124,7.83,'11111222,11111222,11111222' 
TABS,ioos:station:wmo:42044:1,2011-12-02T00:30:00Z,26.1914,-97.0507,0.0,5.782361109,139.6999418,7.16,'11111222,11111222,11111222' 
TABS,ioos:station:wmo:42044:1,2011-12-02T01:00:00Z,26.1914,-97.0507,0.0,6.024084993,142.8260426,8.07,'11111222,11111222,11111222' 
TABS,ioos:station:wmo:42044:1,2011-12-02T01:30:00Z,26.1914,-97.0507,0.0,5.964000335,143.1111852,7.62,'11111222,11111222,11111222' 
TABS,ioos:station:wmo:42044:1,2011-12-02T02:00:00Z,26.1914,-97.0507,0.0,5.871507473,146.3914153,7.23,'11111222,11111222,11111222' 
TABS,ioos:station:wmo:42044:1,2011-12-02T02:30:00Z,26.1914,-97.0507,0.0,5.708117028,148.1757791,6.74,'11111222,11111222,11111222' 
TABS,ioos:station:wmo:42044:1,2011-12-02T03:00:00Z,26.1914,-97.0507,0.0,5.630781473,145.4917682,6.91,'11111222,11111222,11111222' 
TABS,ioos:station:wmo:42044:1,2011-12-02T03:30:00Z,26.1914,-97.0507,0.0,5.831234861,147.53663,7.09,'11111222,11111222,11111222' 
TABS,ioos:station:wmo:42044:1,2011-12-02T04:00:00Z,26.1914,-97.0507,0.0,5.917060081,144.214974,7.41,'11111222,11111222,11111222' 
TABS,ioos:station:wmo:42044:1,2011-12-02T04:30:00Z,26.1914,-97.0507,0.0,5.545628909,152.9731698,6.94,'11111222,11111222,11111222' 
TABS,ioos:station:wmo:42044:1,2011-12-02T05:00:00Z,26.1914,-97.0507,0.0,5.78039791,156.2289971,6.95,'11111222,11111222,11111222' 
TABS,ioos:station:wmo:42044:1,2011-12-02T05:30:00Z,26.1914,-97.0507,0.0,5.125085365,153.5852097,6.64,'11111222,11111222,11111222' 
TABS,ioos:station:wmo:42044:1,2011-12-02T06:00:00Z,26.1914,-97.0507,0.0,5.675147575,153.5255218,7.07,'11111222,11111222,11111222' 
TABS,ioos:station:wmo:42044:1,2011-12-02T06:30:00Z,26.1914,-97.0507,0.0,5.506187429,157.5805081,6.61,'11111222,11111222,11111222' 
TABS,ioos:station:wmo:42044:1,2011-12-02T07:00:00Z,26.1914,-97.0507,0.0,5.870204426,164.9933813,7.42,'11111222,11111222,11111222' 
TABS,ioos:station:wmo:42044:1,2011-12-02T07:30:00Z,26.1914,-97.0507,0.0,5.617116698,162.597547,7.32,'11111222,11111222,11111222' 
TABS,ioos:station:wmo:42044:1,2011-12-02T08:00:00Z,26.1914,-97.0507,0.0,4.407833935,151.4001917,5.73,'11111222,11111222,11111222' 
TABS,ioos:station:wmo:42044:1,2011-12-02T08:30:00Z,26.1914,-97.0507,0.0,4.357177986,139.841164,5.8,'11111222,11111222,11111222' 
TABS,ioos:station:wmo:42044:1,2011-12-02T09:00:00Z,26.1914,-97.0507,0.0,3.525124111,139.4871578,4.51,'11111222,11111222,11111222' 
TABS,ioos:station:wmo:42044:1,2011-12-02T09:30:00Z,26.1914,-97.0507,0.0,3.561137459,132.154961,4.63,'11111222,11111222,11111222' 
TABS,ioos:station:wmo:42044:1,2011-12-02T10:00:00Z,26.1914,-97.0507,0.0,3.151586902,128.6885311,4.1,'11111222,11111222,11111222' 
TABS,ioos:station:wmo:42044:1,2011-12-02T10:30:00Z,26.1914,-97.0507,0.0,4.020460173,116.4379449,5.84,'11111222,11111222,11111222' 
TABS,ioos:station:wmo:42044:1,2011-12-02T11:00:00Z,26.1914,-97.0507,0.0,6.973270395,130.405556,9.74,'11111222,11111222,11111222' 
TABS,ioos:station:wmo:42044:1,2011-12-02T11:30:00Z,26.1914,-97.0507,0.0,6.978431056,121.3442868,9.15,'11111222,11111222,11111222' 
TABS,ioos:station:wmo:42044:1,2011-12-02T12:00:00Z,26.1914,-97.0507,0.0,6.976481921,126.1967767,9.27,'11111222,11111222,11111222' 
TABS,ioos:station:wmo:42044:1,2011-12-02T12:30:00Z,26.1914,-97.0507,0.0,6.21189987,116.8954028,8.58,'11111222,11111222,11111222' 
TABS,ioos:station:wmo:42044:1,2011-12-02T13:00:00Z,26.1914,-97.0507,0.0,9.836284868,135.5357734,12.43,'11111222,11111222,11111222' 
TABS,ioos:station:wmo:42044:1,2011-12-02T13:30:00Z,26.1914,-97.0507,0.0,6.900818792,123.1147091,9.72,'11111222,11111222,11111222' 
TABS,ioos:station:wmo:42044:1,2011-12-02T14:00:00Z,26.1914,-97.0507,0.0,6.676024266,127.0247139,9.19,'11111222,11111222,11111222' 
TABS,ioos:station:wmo:42044:1,2011-12-02T14:30:00Z,26.1914,-97.0507,0.0,4.794256981,138.1285756,6.45,'11111222,11111222,11111222' 
TABS,ioos:station:wmo:42044:1,2011-12-02T15:00:00Z,26.1914,-97.0507,0.0,3.994859197,130.228263,5.77,'11111222,11111222,11111222' 
TABS,ioos:station:wmo:42044:1,2011-12-02T15:30:00Z,26.1914,-97.0507,0.0,4.558826603,139.1808985,6.03,'11111222,11111222,11111222' 
TABS,ioos:station:wmo:42044:1,2011-12-02T16:00:00Z,26.1914,-97.0507,0.0,5.056184332,140.2962946,7.0,'11111222,11111222,11111222' 
TABS,ioos:station:wmo:42044:1,2011-12-02T16:30:00Z,26.1914,-97.0507,0.0,5.508729436,134.3383929,7.25,'11111222,11111222,11111222' 
TABS,ioos:station:wmo:42044:1,2011-12-02T17:00:00Z,26.1914,-97.0507,0.0,5.623459789,133.4871977,7.54,'11111222,11111222,11111222' 
TABS,ioos:station:wmo:42044:1,2011-12-02T17:30:00Z,26.1914,-97.0507,0.0,5.138219536,138.8668309,6.98,'11111222,11111222,11111222' 
TABS,ioos:station:wmo:42044:1,2011-12-02T18:00:00Z,26.1914,-97.0507,0.0,5.004687802,132.3279182,6.62,'11111222,11111222,11111222' 
TABS,ioos:station:wmo:42044:1,2011-12-02T18:30:00Z,26.1914,-97.0507,0.0,5.262594417,131.6881116,6.93,'11111222,11111222,11111222' 
TABS,ioos:station:wmo:42044:1,2011-12-02T19:00:00Z,26.1914,-97.0507,0.0,5.575239905,122.9208129,7.18,'11111222,11111222,11111222' 
TABS,ioos:station:wmo:42044:1,2011-12-02T19:30:00Z,26.1914,-97.0507,0.0,5.67358793,120.2713257,7.45,'11111222,11111222,11111222' 
TABS,ioos:station:wmo:42044:1,2011-12-02T20:00:00Z,26.1914,-97.0507,0.0,5.825873325,122.3810229,7.97,'11111222,11111222,11111222' 
TABS,ioos:station:wmo:42044:1,2011-12-02T20:30:00Z,26.1914,-97.0507,0.0,5.530325488,126.2486042,7.01,'11111222,11111222,11111222' 
TABS,ioos:station:wmo:42044:1,2011-12-02T21:00:00Z,26.1914,-97.0507,0.0,5.053652145,130.0236417,6.47,'11111222,11111222,11111222' 
TABS,ioos:station:wmo:42044:1,2011-12-02T21:30:00Z,26.1914,-97.0507,0.0,5.12141582,131.5967002,7.15,'11111222,11111222,11111222' 
TABS,ioos:station:wmo:42044:1,2011-12-02T22:00:00Z,26.1914,-97.0507,0.0,4.792327201,127.539767,6.11,'11111222,11111222,11111222' 
TABS,ioos:station:wmo:42044:1,2011-12-02T22:30:00Z,26.1914,-97.0507,0.0,5.28920599,129.8613776,7.1,'11111222,11111222,11111222' 
TABS,ioos:station:wmo:42044:1,2011-12-02T23:00:00Z,26.1914,-97.0507,0.0,5.100666623,131.5032641,7.09,'11111222,11111222,11111222' 
TABS,ioos:station:wmo:42044:1,2011-12-02T23:30:00Z,26.1914,-97.0507,0.0,6.051660929,131.2485954,7.45,'11111222,11111222,11111222' 
TABS,ioos:station:wmo:42044:1,2011-12-03T00:00:00Z,26.1914,-97.0507,0.0,6.609568821,128.1186081,8.82,'11111222,11111222,11111222' 
TABS,ioos:station:wmo:42044:1,2011-12-03T00:30:00Z,26.1914,-97.0507,0.0,6.71417158,126.460619,9.09,'11111222,11111222,11111222' 
TABS,ioos:station:wmo:42044:1,2011-12-03T01:00:00Z,26.1914,-97.0507,0.0,6.91104189,125.8753284,9.2,'11111222,11111222,11111222' 
TABS,ioos:station:wmo:42044:1,2011-12-03T01:30:00Z,26.1914,-97.0507,0.0,7.057308269,131.3237224,9.54,'11111222,11111222,11111222' 
TABS,ioos:station:wmo:42044:1,2011-12-03T02:00:00Z,26.1914,-97.0507,0.0,6.922781233,143.9911761,8.92,'11111222,11111222,11111222' 
TABS,ioos:station:wmo:42044:1,2011-12-03T02:30:00Z,26.1914,-97.0507,0.0,7.851751397,136.5484698,10.96,'11111222,11111222,11111222' 
TABS,ioos:station:wmo:42044:1,2011-12-03T03:00:00Z,26.1914,-97.0507,0.0,6.923878971,136.1121447,9.17,'11111222,11111222,11111222' 
TABS,ioos:station:wmo:42044:1,2011-12-03T03:30:00Z,26.1914,-97.0507,0.0,7.880640837,147.2781659,11.42,'11111222,11111222,11111222' 
TABS,ioos:station:wmo:42044:1,2011-12-03T04:00:00Z,26.1914,-97.0507,0.0,8.438684732,137.785994,11.05,'11111222,11111222,11111222' 
TABS,ioos:station:wmo:42044:1,2011-12-03T04:30:00Z,26.1914,-97.0507,0.0,7.754050554,138.084496,10.24,'11111222,11111222,11111222' 
TABS,ioos:station:wmo:42044:1,2011-12-03T05:00:00Z,26.1914,-97.0507,0.0,6.722335904,137.1704807,9.35,'11111222,11111222,11111222' 
TABS,ioos:station:wmo:42044:1,2011-12-03T05:30:00Z,26.1914,-97.0507,0.0,6.796712441,131.1228083,9.67,'11111222,11111222,11111222' 
TABS,ioos:station:wmo:42044:1,2011-12-03T06:00:00Z,26.1914,-97.0507,0.0,7.820773619,147.692041,10.39,'11111222,11111222,11111222' 
TABS,ioos:station:wmo:42044:1,2011-12-03T06:30:00Z,26.1914,-97.0507,0.0,7.53923073,148.6715909,10.99,'11111222,11111222,11111222' 
TABS,ioos:station:wmo:42044:1,2011-12-03T07:00:00Z,26.1914,-97.0507,0.0,7.643304259,152.8317788,10.34,'11111222,11111222,11111222' 
TABS,ioos:station:wmo:42044:1,2011-12-03T07:30:00Z,26.1914,-97.0507,0.0,8.104054541,154.0992141,11.08,'11111222,11111222,11111222' 
TABS,ioos:station:wmo:42044:1,2011-12-03T08:00:00Z,26.1914,-97.0507,0.0,6.353030773,156.1385049,9.21,'11111222,11111222,11111222' 
TABS,ioos:station:wmo:42044:1,2011-12-03T08:30:00Z,26.1914,-97.0507,0.0,6.965206386,140.1842002,9.51,'11111222,11111222,11111222' 
TABS,ioos:station:wmo:42044:1,2011-12-03T09:00:00Z,26.1914,-97.0507,0.0,8.19621864,150.3074226,11.29,'11111222,11111222,11111222' 
TABS,ioos:station:wmo:42044:1,2011-12-03T09:30:00Z,26.1914,-97.0507,0.0,6.816509371,164.8630802,9.67,'11111222,11111222,11111222' 
TABS,ioos:station:wmo:42044:1,2011-12-03T10:00:00Z,26.1914,-97.0507,0.0,9.595415572,165.268839,14.77,'11111222,11111222,11111222' 
TABS,ioos:station:wmo:42044:1,2011-12-03T10:30:00Z,26.1914,-97.0507,0.0,7.870984691,156.1708167,11.0,'11111222,11111222,11111222' 
TABS,ioos:station:wmo:42044:1,2011-12-03T11:00:00Z,26.1914,-97.0507,0.0,7.723069338,158.1850757,10.67,'11111222,11111222,11111222' 
TABS,ioos:station:wmo:42044:1,2011-12-03T11:30:00Z,26.1914,-97.0507,0.0,8.18088626,161.3216834,12.24,'11111222,11111222,11111222' 
TABS,ioos:station:wmo:42044:1,2011-12-03T12:00:00Z,26.1914,-97.0507,0.0,7.138550273,165.1463805,9.84,'11111222,11111222,11111222' 
TABS,ioos:station:wmo:42044:1,2011-12-03T12:30:00Z,26.1914,-97.0507,0.0,8.534190061,154.4561049,11.31,'11111222,11111222,11111222' 
TABS,ioos:station:wmo:42044:1,2011-12-03T13:00:00Z,26.1914,-97.0507,0.0,8.361417344,155.8568811,11.14,'11111222,11111222,11111222' 
TABS,ioos:station:wmo:42044:1,2011-12-03T13:30:00Z,26.1914,-97.0507,0.0,8.962164917,153.4924027,11.79,'11111222,11111222,11111222' 
TABS,ioos:station:wmo:42044:1,2011-12-03T14:00:00Z,26.1914,-97.0507,0.0,9.324703749,159.6024286,13.27,'11111222,11111222,11111222' 
TABS,ioos:station:wmo:42044:1,2011-12-03T14:30:00Z,26.1914,-97.0507,0.0,8.02018703,158.2651817,10.77,'11111222,11111222,11111222' 
TABS,ioos:station:wmo:42044:1,2011-12-03T15:00:00Z,26.1914,-97.0507,0.0,9.28605406,152.2762191,12.29,'11111222,11111222,11111222' 
TABS,ioos:station:wmo:42044:1,2011-12-03T15:30:00Z,26.1914,-97.0507,0.0,9.51311726,152.654088,12.11,'11111222,11111222,11111222' 
TABS,ioos:station:wmo:42044:1,2011-12-03T16:00:00Z,26.1914,-97.0507,0.0,8.734992845,159.8434261,11.69,'11111222,11111222,11111222' 
TABS,ioos:station:wmo:42044:1,2011-12-03T16:30:00Z,26.1914,-97.0507,0.0,7.725347889,152.1415616,10.79,'11111222,11111222,11111222' 
TABS,ioos:station:wmo:42044:1,2011-12-03T17:00:00Z,26.1914,-97.0507,0.0,7.773351915,149.9719855,10.1,'11111222,11111222,11111222' 
TABS,ioos:station:wmo:42044:1,2011-12-03T17:30:00Z,26.1914,-97.0507,0.0,6.677641799,151.1706888,9.14,'11111222,11111222,11111222' 
TABS,ioos:station:wmo:42044:1,2011-12-03T18:00:00Z,26.1914,-97.0507,0.0,7.25482598,150.4317226,9.16,'11111222,11111222,11111222' 
TABS,ioos:station:wmo:42044:1,2011-12-03T18:30:00Z,26.1914,-97.0507,0.0,7.133316199,150.5243904,9.19,'11111222,11111222,11111222' 
TABS,ioos:station:wmo:42044:1,2011-12-03T19:00:00Z,26.1914,-97.0507,0.0,9.235637498,152.7416034,13.23,'11111222,11111222,11111222' 
TABS,ioos:station:wmo:42044:1,2011-12-03T19:30:00Z,26.1914,-97.0507,0.0,7.68188128,149.6633124,9.89,'11111222,11111222,11111222' 
TABS,ioos:station:wmo:42044:1,2011-12-03T20:00:00Z,26.1914,-97.0507,0.0,7.89408006,149.0489738,10.7,'11111222,11111222,11111222' 
TABS,ioos:station:wmo:42044:1,2011-12-03T20:30:00Z,26.1914,-97.0507,0.0,8.045775289,152.8619656,10.39,'11111222,11111222,11111222' 
TABS,ioos:station:wmo:42044:1,2011-12-03T21:00:00Z,26.1914,-97.0507,0.0,7.27303238,151.1446167,9.38,'11111222,11111222,11111222' 
TABS,ioos:station:wmo:42044:1,2011-12-03T21:30:00Z,26.1914,-97.0507,0.0,6.48951462,149.1273756,8.36,'11111222,11111222,11111222' 
TABS,ioos:station:wmo:42044:1,2011-12-03T22:00:00Z,26.1914,-97.0507,0.0,6.40644207,150.0335387,8.66,'11111222,11111222,11111222' 
TABS,ioos:station:wmo:42044:1,2011-12-03T22:30:00Z,26.1914,-97.0507,0.0,6.421814385,147.3990791,8.51,'11111222,11111222,11111222' 
TABS,ioos:station:wmo:42044:1,2011-12-03T23:00:00Z,26.1914,-97.0507,0.0,5.810834708,146.9392179,7.59,'11111222,11111222,11111222' 
TABS,ioos:station:wmo:42044:1,2011-12-03T23:30:00Z,26.1914,-97.0507,0.0,6.682993341,150.212863,9.0,'11111222,11111222,11111222' 
TABS,ioos:station:wmo:42044:1,2011-12-04T00:00:00Z,26.1914,-97.0507,0.0,5.677966185,147.1498633,7.75,'11111222,11111222,11111222' 
TABS,ioos:station:wmo:42044:1,2011-12-04T00:30:00Z,26.1914,-97.0507,0.0,6.377342707,153.1539687,9.17,'11111222,11111222,11111222' 
TABS,ioos:station:wmo:42044:1,2011-12-04T01:00:00Z,26.1914,-97.0507,0.0,6.051917052,156.739518,8.36,'11111222,11111222,11111222' 
TABS,ioos:station:wmo:42044:1,2011-12-04T01:30:00Z,26.1914,-97.0507,0.0,6.13153325,152.9337406,7.91,'11111222,11111222,11111222' 
TABS,ioos:station:wmo:42044:1,2011-12-04T02:00:00Z,26.1914,-97.0507,0.0,6.395248236,150.3887475,8.65,'11111222,11111222,11111222' 
TABS,ioos:station:wmo:42044:1,2011-12-04T02:30:00Z,26.1914,-97.0507,0.0,7.157129313,152.182079,9.7,'11111222,11111222,11111222' 
TABS,ioos:station:wmo:42044:1,2011-12-04T03:00:00Z,26.1914,-97.0507,0.0,7.437755038,152.711743,9.78,'11111222,11111222,11111222' 
TABS,ioos:station:wmo:42044:1,2011-12-04T03:30:00Z,26.1914,-97.0507,0.0,7.481076126,156.107764,10.62,'11111222,11111222,11111222' 
TABS,ioos:station:wmo:42044:1,2011-12-04T04:00:00Z,26.1914,-97.0507,0.0,7.522612578,152.788033,10.26,'11111222,11111222,11111222' 
TABS,ioos:station:wmo:42044:1,2011-12-04T04:30:00Z,26.1914,-97.0507,0.0,7.662610521,163.3153292,9.78,'11111222,11111222,11111222' 
TABS,ioos:station:wmo:42044:1,2011-12-04T05:00:00Z,26.1914,-97.0507,0.0,8.083099653,159.8839193,10.51,'11111222,11111222,11111222' 
TABS,ioos:station:wmo:42044:1,2011-12-04T05:30:00Z,26.1914,-97.0507,0.0,5.825263943,158.2353809,7.74,'11111222,11111222,11111222' 
TABS,ioos:station:wmo:42044:1,2011-12-04T06:00:00Z,26.1914,-97.0507,0.0,6.361210577,159.2860841,8.34,'11111222,11111222,11111222' 
TABS,ioos:station:wmo:42044:1,2011-12-04T06:30:00Z,26.1914,-97.0507,0.0,6.58902876,147.7091636,8.74,'11111222,11111222,11111222' 
TABS,ioos:station:wmo:42044:1,2011-12-04T07:00:00Z,26.1914,-97.0507,0.0,7.040227269,150.376531,9.39,'11111222,11111222,11111222' 
TABS,ioos:station:wmo:42044:1,2011-12-04T07:30:00Z,26.1914,-97.0507,0.0,6.698790936,147.1879745,8.68,'11111222,11111222,11111222' 
TABS,ioos:station:wmo:42044:1,2011-12-04T08:00:00Z,26.1914,-97.0507,0.0,7.197388415,147.9442727,9.57,'11111222,11111222,11111222' 
TABS,ioos:station:wmo:42044:1,2011-12-04T08:30:00Z,26.1914,-97.0507,0.0,7.635607376,150.4136222,10.58,'11111222,11111222,11111222' 
TABS,ioos:station:wmo:42044:1,2011-12-04T09:00:00Z,26.1914,-97.0507,0.0,7.44422595,146.6731177,9.55,'11111222,11111222,11111222' 
TABS,ioos:station:wmo:42044:1,2011-12-04T09:30:00Z,26.1914,-97.0507,0.0,7.634690563,152.6297118,10.55,'11111222,11111222,11111222' 
TABS,ioos:station:wmo:42044:1,2011-12-04T10:00:00Z,26.1914,-97.0507,0.0,6.670367306,146.6199249,9.0,'11111222,11111222,11111222' 
TABS,ioos:station:wmo:42044:1,2011-12-04T10:30:00Z,26.1914,-97.0507,0.0,7.827879662,150.4551292,10.51,'11111222,11111222,11111222' 
TABS,ioos:station:wmo:42044:1,2011-12-04T11:00:00Z,26.1914,-97.0507,0.0,7.100260559,155.0954999,9.4,'11111222,11111222,11111222' 
TABS,ioos:station:wmo:42044:1,2011-12-04T11:30:00Z,26.1914,-97.0507,0.0,8.380095465,157.1069129,11.18,'11111222,11111222,11111222' 
TABS,ioos:station:wmo:42044:1,2011-12-04T12:00:00Z,26.1914,-97.0507,0.0,6.812341741,149.6711953,9.43,'11111222,11111222,11111222' 
TABS,ioos:station:wmo:42044:1,2011-12-04T12:30:00Z,26.1914,-97.0507,0.0,7.221087176,155.1032106,9.51,'11111222,11111222,11111222' 
TABS,ioos:station:wmo:42044:1,2011-12-04T13:00:00Z,26.1914,-97.0507,0.0,5.905472039,150.7006615,7.99,'11111222,11111222,11111222' 
TABS,ioos:station:wmo:42044:1,2011-12-04T13:30:00Z,26.1914,-97.0507,0.0,6.585020881,150.1258929,8.99,'11111222,11111222,11111222' 
TABS,ioos:station:wmo:42044:1,2011-12-04T14:00:00Z,26.1914,-97.0507,0.0,6.332550829,153.3542954,8.54,'11111222,11111222,11111222' 
TABS,ioos:station:wmo:42044:1,2011-12-04T14:30:00Z,26.1914,-97.0507,0.0,6.531194378,152.0619587,8.76,'11111222,11111222,11111222' 
TABS,ioos:station:wmo:42044:1,2011-12-04T15:00:00Z,26.1914,-97.0507,0.0,5.962323373,154.4666895,8.44,'11111222,11111222,11111222' 
TABS,ioos:station:wmo:42044:1,2011-12-04T15:30:00Z,26.1914,-97.0507,0.0,6.44894565,153.0776249,8.81,'11111222,11111222,11111222' 
TABS,ioos:station:wmo:42044:1,2011-12-04T16:00:00Z,26.1914,-97.0507,0.0,6.337799303,159.5923458,8.28,'11111222,11111222,11111222' 
TABS,ioos:station:wmo:42044:1,2011-12-04T16:30:00Z,26.1914,-97.0507,0.0,6.018612797,162.4985722,8.11,'11111222,11111222,11111222' 
TABS,ioos:station:wmo:42044:1,2011-12-04T17:00:00Z,26.1914,-97.0507,0.0,5.785957138,164.6669615,8.06,'11111222,11111222,11111222' 
TABS,ioos:station:wmo:42044:1,2011-12-04T17:30:00Z,26.1914,-97.0507,0.0,5.366497927,161.193918,7.55,'11111222,11111222,11111222' 
TABS,ioos:station:wmo:42044:1,2011-12-04T18:00:00Z,26.1914,-97.0507,0.0,5.727835542,160.5213804,8.27,'11111222,11111222,11111222' 
TABS,ioos:station:wmo:42044:1,2011-12-04T18:30:00Z,26.1914,-97.0507,0.0,4.519480059,162.4874084,6.11,'11111222,11111222,11111222' 